Location: Castellar de la Frontera
(36.3200°N, 5.4500°W)
Time: 12:01:16
(UTC+02:00)

ISS - Pass Details

Date: 20 July 2018
Orbit: 402 x 408 km, 51.6° (Epoch: 21 July)

Event Time Altitude Azimuth Distance (km) Brightness Sun altitude
Rises 00:33:15 0° 268° (W) 2,311 0.4 -26.8°
Reaches altitude 10° 00:35:53 10° 291° (WNW) 1,456 -0.4 -27.1°
Maximum altitude 00:38:03 16° 333° (NNW) 1,133 -0.7 -27.3°
Drops below altitude 10° 00:40:14 10° 14° (NNE) 1,462 -0.5 -27.5°
Sets 00:42:52 0° 37° (NE) 2,326 0.3 -27.8°
